Location: Paddlesworth
(51.1000°N, 1.1333°E)
Time: 06:52:54
(UTC+00:00)

Cosmos 1782 Rocket - Pass Details

Date: 11 May 2021
Orbit: 606 x 633 km, 82.5° (Epoch: 15 June)

Event Time Altitude Azimuth Distance (km) Brightness Sun altitude
Rises 23:43:47 0° 348° (NNW) 2,935 8.5 -20.7°
Reaches altitude 10° 23:46:03 10° 347° (NNW) 2,020 7.3 -20.7°
Maximum altitude 23:50:31 76° 262° (W) 652 3.5 -20.8°
Enters shadow 23:51:24 55° 194° (SSW) 751 3.6 -20.8°
